Location: Trout Lake
(45.9980°N, 121.5270°W)
Time: 22:59:50
(UTC-07:00)

Daily predictions for brighter satellites

Satellite Brightness Start Highest point End
(mag) Time Altitude Azimuth Time Altitude Azimuth Time Altitude Azimuth
Cosmos 2266 Rocket 4.1 21:25:38 10° S 21:31:50 63° E 21:37:56 10° NNE
Cosmos 2322 Rocket 3.5 21:27:42 10° NW 21:32:51 38° WSW 21:37:58 10° S
Cosmos 1437 3.4 21:33:35 10° SSE 21:36:39 37° E 21:39:43 10° NNE
Cosmos 1908 3.4 21:36:03 10° N 21:39:58 82° W 21:43:52 10° S
Meteor 1-4 Rocket 4.5 21:38:20 10° NNE 21:41:00 18° ENE 21:43:36 10° ESE
Cosmos 2360 Rocket 2.3 21:36:52 10° NNW 21:42:33 83° WSW 21:48:13 10° SSE
Cosmos 304 Rocket 3.8 21:38:06 10° NNW 21:42:57 89° ENE 21:47:45 10° SSE
SL-16 R/B 3.7 21:38:38 10° NW 21:43:40 34° WSW 21:48:41 10° SSW
Envisat 3.2 21:38:57 10° S 21:44:01 80° WSW 21:49:09 10° NNW
ERS-1 Rocket 4.0 21:42:58 10° S 21:47:47 45° W 21:52:37 10° NNW
Cosmos 1707 Rocket 4.2 21:44:12 10° N 21:48:19 41° ENE 21:52:27 10° SSE
H-2A R/B 2.9 21:44:53 10° S 21:49:19 53° W 21:53:45 10° NNW
Cosmos 2112 Rocket 4.0 21:47:41 10° NNW 21:52:57 88° ENE 21:58:13 10° SSE
Aureole 3 4.4 21:46:39 10° S 21:53:10 63° E 21:58:22 10° NNE
MetOp-B 4.2 21:48:16 10° SSE 21:53:37 81° ENE 21:59:00 10° NNW
Cosmos 1674 2.9 21:50:30 10° SSW 21:54:19 78° W 21:58:12 10° N
Cosmos 1666 Rocket 4.4 21:50:57 10° SSE 21:54:51 32° E 21:58:48 10° NNE
ATLAS 2AS CENTAUR R/B 4.4 21:51:23 10° SE 21:55:19 15° ESE 21:59:23 10° ENE
Cosmos 405 4.1 21:59:39 10° NNW 22:03:08 43° W 22:06:34 10° SSW
Cosmos 1300 2.9 21:59:40 10° N 22:03:28 56° E 22:07:01 11° SSE
Cosmos 1939 Rocket 4.3 22:00:49 10° SSW 22:04:26 34° W 22:08:01 10° NNW
ATLAS 3B R/B 4.1 22:03:07 10° NNW 22:09:28 32° NNE 22:15:28 10° E
Cosmos 2227 Rocket 3.6 22:08:49 12° SE 22:12:00 19° E 22:15:48 10° ENE
YAOGAN 6 2.7 22:09:58 10° S 22:13:36 75° WSW 22:17:13 10° NNW
Nadezhda 2 Rocket 4.5 22:08:08 10° S 22:14:16 87° E 22:20:24 10° N
CZ-2C R/B 4.3 22:10:15 10° SSW 22:14:49 30° W 22:19:40 10° NNW
NOSS 3-1 (C) 3.5 22:13:13 10° SSW 22:18:55 54° ESE 22:25:16 10° NE
Cosmos 2333 Rocket 3.0 22:15:00 10° NNW 22:20:28 43° NE 22:25:14 13° ESE
Terra 2.6 22:17:55 14° SE 22:21:35 38° ENE 22:25:59 10° N
SL-16 R/B 4.0 22:18:07 10° N 22:22:25 21° NE 22:26:42 10° E
H-2A R/B 2.6 22:19:46 14° SE 22:24:08 48° ENE 22:29:22 10° N
Cosmos 1455 3.6 22:22:53 10° NNE 22:26:05 25° ENE 22:28:13 16° ESE
NOSS 0 Rocket 4.2 22:22:17 10° NNW 22:28:22 58° ENE 22:33:18 16° SE
CZ-4B R/B 3.6 22:25:23 10° NNE 22:30:42 88° WNW 22:35:55 10° SSW
COSMOS 2428 2.9 22:26:38 10° NNW 22:32:18 69° WSW 22:37:03 15° SSE
Cosmos 2242 Rocket 3.6 22:31:18 10° N 22:35:47 76° E 22:39:10 17° SSE
SPOT 1/Viking Rocket 3.9 22:31:25 10° S 22:36:24 61° WSW 22:41:32 10° NNW
CZ-4 R/B 3.8 22:33:31 10° NNE 22:38:30 82° ESE 22:43:22 10° SSW
Cosmos 2297 Rocket 3.5 22:36:45 17° SE 22:39:06 22° E 22:43:18 10° NE
CZ-4C R/B 2.9 22:38:19 20° SSE 22:40:34 83° ENE 22:44:04 10° NNW
SAR-Lupe-2 4.2 22:40:27 22° SE 22:42:25 43° ENE 22:45:51 10° N
Cosmos 2219 Rocket 2.2 22:38:35 10° NNW 22:44:13 78° ENE 22:48:13 20° SSE
Cosmos 1898 Rocket 3.4 22:40:30 10° SSW 22:45:39 75° ESE 22:50:53 10° NNE
ARGOS 3.5 22:41:19 12° S 22:46:12 61° WSW 22:51:34 10° NNW
BREEZE-M DEB (TANK) 1.8 22:44:27 10° WNW 22:46:26 72° NNE 22:48:18 18° ESE
Cosmos 1862 Rocket 4.0 22:42:45 10° N 22:46:58 46° ENE 22:49:24 22° SE
Tiangong 1 2.7 22:45:35 10° SW 22:47:01 19° SSW 22:47:01 19° SSW
USA 245 4.2 22:46:59 12° SSW 22:48:42 22° W 22:50:38 10° NW
Cosmos 1726 2.8 22:45:54 10° NNW 22:49:34 50° W 22:52:27 15° SSW
Cosmos 2150 Rocket 4.1 22:44:59 10° SSW 22:50:26 83° ESE 22:55:56 10° NNE
DELTA 2 DEB (DPAF) 4.2 22:47:23 18° S 22:50:41 76° WSW 22:55:11 10° NNW
CARTOSAT-1 3.6 22:48:24 22° SSE 22:51:11 74° ENE 22:55:30 10° N
Cosmos 858 Rocket 4.4 22:46:48 10° SSW 22:52:00 77° ESE 22:57:13 10° NNE
Sich 1 3.3 22:48:20 10° SSW 22:52:43 72° W 22:57:08 10° N
SL-08 RB Rocket 4.2 22:51:00 15° S 22:54:33 54° W 22:58:59 10° NNW
Cosmos 1633 Rocket 3.2 22:50:59 11° SSW 22:55:12 72° W 22:59:35 10° N
SeaSat 1 3.9 22:52:14 12° ESE 22:56:03 29° NE 23:00:17 10° N
FALCON 9 R/B 4.2 22:32:39 10° WSW 22:57:23 47° SSW 23:03:14 17° ESE
Lacrosse 4 Rocket 3.1 22:54:03 10° N 22:57:48 26° NE 23:00:59 13° E
Cosmos 1271 Rocket 3.0 22:55:57 10° NNW 22:59:44 61° W 23:02:06 21° S
Cosmos 1980 3.7 22:55:55 10° NNW 23:01:36 78° ENE 23:05:12 23° SSE
SL-14 R/B 4.3 22:59:44 10° SSW 23:03:33 45° WNW 23:07:25 10° N
Cosmos 1703 3.3 23:00:50 19° SSW 23:03:36 82° W 23:07:32 10° N
DMSP B5D2-2 4.1 23:00:47 10° NNE 23:06:00 68° ESE 23:09:38 20° S
Cosmos 2219 4.2 23:03:03 10° SW 23:08:36 49° WNW 23:14:11 10° NNE
Iridium 2 4.0 23:11:14 20° SSW 23:13:42 63° W 23:17:33 10° N
Cosmos 2237 Rocket 2.2 23:08:43 10° NNW 23:14:28 89° ENE 23:17:50 26° SSE
Meteor 1-4 Rocket 3.9 23:12:54 10° NNW 23:16:20 34° W 23:18:34 18° SSW
ERBS 3.3 23:18:45 31° ESE 23:18:45 31° ESE 23:21:21 10° ENE
Cosmos 2082 3.8 23:16:22 19° S 23:20:24 62° ESE 23:26:04 10° NNE
NOSS 3-1 (A) 3.6 23:16:24 10° SW 23:22:22 79° NW 23:29:06 10° NE
ALOS 2 4.4 23:25:45 15° E 23:27:53 21° ENE 23:31:13 10° NNE
COSMOS 2455 3.1 23:23:00 10° NNW 23:29:01 65° NE 23:32:41 24° SE
Cosmos 1933 3.6 23:27:09 10° N 23:31:10 56° ENE 23:32:31 36° SE
Cosmos 1626 2.2 23:30:01 30° SSW 23:31:44 73° W 23:35:30 10° N
COS B Rocket 3.9 23:28:36 10° NNE 23:32:09 41° E 23:33:10 34° SE
Cosmos 1241 Rocket 4.4 23:28:21 11° SSW 23:34:13 76° ESE 23:40:30 10° NE
IGS 5A 4.4 23:34:54 24° SSW 23:36:57 41° W 23:40:55 10° NNW
BREEZE-M DEB (TANK) 4.0 23:45:33 15° E 23:45:33 15° E 23:46:26 10° ENE
Okean 1-7 3.5 23:40:25 10° N 23:44:33 45° ENE 23:45:52 34° ESE
ATLAS 2AS CENTAUR R/B 3.0 23:38:04 13° SSW 23:44:50 69° ESE 23:52:52 10° NE
Cosmos 1937 Rocket 4.4 23:40:57 10° SW 23:46:00 48° WNW 23:51:03 10° NNE
Cosmos 1703 Rocket 3.5 23:43:28 10° N 23:47:51 80° E 23:49:20 41° SSE
Cosmos 2221 Rocket 3.6 23:48:59 10° N 23:53:35 87° E 23:55:11 41° SSE
